Location: Foligno
(42.9600°N, 12.7050°E)
Time: 17:48:16
(UTC+02:00)

ISS - Pass Details

Date: 24 May 2020
Orbit: 417 x 420 km, 51.6° (Epoch: 26 May)

Event Time Altitude Azimuth Distance (km) Brightness Sun altitude
Rises 23:08:00 0° 304° (NW) 2,367 1.2 -20.5°
Reaches altitude 10° 23:10:21 10° 318° (NW) 1,502 0.2 -20.7°
Maximum altitude 23:13:12 25° 16° (NNE) 889 -1.7 -21.0°
Enters shadow 23:14:42 18° 56° (NE) 1,089 -1.6 -21.1°
